Time,TemperatureF,DewpointF,PressureIn,WindDirection,WindDirectionDegrees,WindSpeedMPH,WindSpeedGustMPH,Humidity,HourlyPrecipIn,Conditions,Clouds,dailyrainin,SoftwareType,DateUTC
2013-08-15 00:41:00,88.0,56.0,18.10,North,0,0.0,-999.0,34,0.00,,,-99.99,,2013-08-15 07:41:00,
2013-08-15 00:52:00,88.0,56.0,18.10,North,0,0.0,-999.0,34,0.00,,,-99.99,,2013-08-15 07:52:00,
2013-08-15 01:41:00,88.0,54.0,18.10,North,0,0.0,-999.0,32,0.00,,,-99.99,,2013-08-15 08:41:00,
2013-08-15 01:52:00,88.0,54.0,18.10,North,0,0.0,-999.0,32,0.00,,,-99.99,,2013-08-15 08:52:00,
2013-08-15 02:42:00,88.0,54.0,18.10,North,0,0.0,-999.0,31,0.00,,,-99.99,,2013-08-15 09:42:00,
2013-08-15 02:53:00,88.0,54.0,18.10,North,0,0.0,-999.0,31,0.00,,,-99.99,,2013-08-15 09:53:00,
2013-08-15 03:42:00,87.0,52.0,18.21,North,0,0.0,-999.0,30,0.00,,,-99.99,,2013-08-15 10:42:00,
2013-08-15 03:52:00,87.0,52.0,18.21,North,0,0.0,-999.0,30,0.00,,,-99.99,,2013-08-15 10:52:00,
2013-08-15 04:42:00,86.0,51.0,18.21,North,0,0.0,-999.0,30,0.00,,,-99.99,,2013-08-15 11:42:00,
2013-08-15 04:51:00,86.0,51.0,18.21,North,0,0.0,-999.0,30,0.00,,,-99.99,,2013-08-15 11:51:00,
2013-08-15 05:42:00,86.0,52.0,29.64,North,0,0.0,-999.0,31,0.00,,,-99.99,,2013-08-15 12:42:00,
2013-08-15 05:51:00,86.0,52.0,29.64,North,0,0.0,-999.0,31,0.00,,,-99.99,,2013-08-15 12:51:00,
2013-08-15 06:42:00,83.0,55.0,29.64,North,0,0.0,-999.0,39,0.00,,,-99.99,,2013-08-15 13:42:00,
2013-08-15 06:52:00,83.0,55.0,29.64,North,0,0.0,-999.0,39,0.00,,,-99.99,,2013-08-15 13:52:00,
2013-08-15 07:43:00,81.0,57.0,19.81,North,0,0.0,-999.0,44,0.00,,,-99.99,,2013-08-15 14:43:00,
2013-08-15 07:53:00,81.0,57.0,19.81,North,0,0.0,-999.0,44,0.00,,,-99.99,,2013-08-15 14:53:00,
2013-08-15 08:43:00,88.0,57.0,29.76,North,0,0.0,-999.0,35,0.00,,,-99.99,,2013-08-15 15:43:00,
2013-08-15 08:54:00,88.0,57.0,29.76,North,0,0.0,-999.0,35,0.00,,,-99.99,,2013-08-15 15:54:00,
2013-08-15 08:55:00,93.0,56.0,29.78,North,0,0.0,-999.0,29,0.00,,,-99.99,,2013-08-15 15:55:00,
2013-08-15 09:44:00,93.0,56.0,29.78,North,0,0.0,-999.0,29,0.00,,,-99.99,,2013-08-15 16:44:00,
2013-08-15 09:55:00,-999.0,-99.9,29.77,North,0,0.0,-999.0,-999,-99.99,,,-99.99,,2013-08-15 16:55:00,
2013-08-15 10:53:00,97.0,65.0,29.77,North,0,0.0,-999.0,35,0.00,,,-99.99,,2013-08-15 17:53:00,
2013-08-15 10:55:00,-999.0,-99.9,29.76,North,0,0.0,-999.0,-999,0.00,,,-99.99,,2013-08-15 17:55:00,
2013-08-15 11:35:00,-999.0,-99.9,29.76,North,0,0.0,-999.0,-999,0.00,,,-99.99,,2013-08-15 18:35:00,
2013-08-15 11:49:00,101.0,60.0,29.76,North,0,0.0,-999.0,26,0.00,,,-99.99,,2013-08-15 18:49:00,
2013-08-15 12:34:00,-999.0,-99.9,29.75,North,0,0.0,-999.0,-999,-99.99,,,-99.99,,2013-08-15 19:34:00,
2013-08-15 12:49:00,103.0,58.0,29.75,North,0,0.0,-999.0,23,0.00,,,-99.99,,2013-08-15 19:49:00,
2013-08-15 13:44:00,106.0,57.0,29.73,North,0,0.0,-999.0,20,0.00,,,-99.99,,2013-08-15 20:44:00,
2013-08-15 13:54:00,106.0,57.0,29.73,North,0,0.0,-999.0,20,0.00,,,-99.99,,2013-08-15 20:54:00,
2013-08-15 13:56:00,107.0,56.0,29.71,North,0,0.0,-999.0,19,0.00,,,-99.99,,2013-08-15 20:56:00,
2013-08-15 14:49:00,107.0,56.0,29.71,North,0,0.0,-999.0,19,0.00,,,-99.99,,2013-08-15 21:49:00,
2013-08-15 14:55:00,108.0,55.0,29.66,North,0,0.0,-999.0,18,0.00,,,-99.99,,2013-08-15 21:55:00,
2013-08-15 15:29:00,108.0,55.0,29.66,North,0,0.0,-999.0,18,0.00,,,-99.99,,2013-08-15 22:29:00,
2013-08-15 15:40:00,108.0,55.0,29.66,North,0,0.0,-999.0,18,0.00,,,-99.99,,2013-08-15 22:40:00,
2013-08-15 15:49:00,108.0,55.0,29.66,North,0,0.0,-999.0,18,0.00,,,-99.99,,2013-08-15 22:49:00,
2013-08-15 16:48:00,110.0,55.0,29.52,SSE,150,4.0,-999.0,17,0.00,,,-99.99,,2013-08-15 23:48:00,
2013-08-15 16:55:00,110.0,55.0,29.52,SSE,150,4.0,-999.0,17,0.00,,,-99.99,,2013-08-15 23:55:00,
2013-08-15 17:52:00,109.0,56.0,28.89,North,0,0.0,-999.0,18,0.00,,,-99.99,,2013-08-16 00:52:00,
2013-08-15 18:42:00,-999.0,-99.9,28.35,North,0,0.0,-999.0,-999,-99.99,,,-99.99,,2013-08-16 01:42:00,
2013-08-15 18:54:00,109.0,58.0,28.35,North,0,0.0,-999.0,19,0.00,,,-99.99,,2013-08-16 01:54:00,
2013-08-15 19:43:00,106.0,58.0,27.74,North,0,0.0,-999.0,21,0.00,,,-99.99,,2013-08-16 02:43:00,
2013-08-15 19:52:00,106.0,58.0,27.74,North,0,0.0,-999.0,21,0.00,,,-99.99,,2013-08-16 02:52:00,
2013-08-15 20:43:00,101.0,59.0,27.74,North,0,0.0,-999.0,25,0.00,,,-99.99,,2013-08-16 03:43:00,
2013-08-15 20:53:00,101.0,59.0,27.74,North,0,0.0,-999.0,25,0.00,,,-99.99,,2013-08-16 03:53:00,
2013-08-15 21:42:00,101.0,52.0,28.73,ENE,70,4.0,-999.0,20,0.00,,,-99.99,,2013-08-16 04:42:00,
2013-08-15 21:53:00,101.0,52.0,28.73,ENE,70,4.0,-999.0,20,0.00,,,-99.99,,2013-08-16 04:53:00,
2013-08-15 21:55:00,97.0,49.0,28.38,North,0,0.0,-999.0,20,0.00,,,-99.99,,2013-08-16 04:55:00,
2013-08-15 22:42:00,97.0,49.0,28.38,North,0,0.0,-999.0,20,0.00,,,-99.99,,2013-08-16 05:42:00,